Theta_e
319 319 319 320 321 321 321 321 321 322 322 323 323 323 324 324 324 325 326 327 327 326 323 321 321 322 326 331 333 332 331 324 320 319 318 324 329 333 331 333 332 333 333 313 311 309 307 309 309 312 310 310 305 305 307 308 306 304 298 293 292 291 291 293 293 293 292 294 294 295 296 299 297 299 303 307 307 303 305 308 307 310 311 313 314 318 321 321
320 319 319 319 320 321 321 321 321 321 322 322 322 323 323 324 324 325 325 326 327 326 323 323 321 322 325 329 333 331 327 323 319 318 318 329 332 334 332 331 331 329 329 314 307 306 306 306 307 308 307 305 308 306 308 305 307 299 293 293 294 292 294 296 294 295 294 295 294 295 294 298 298 299 301 303 301 303 305 306 305 309 310 314 316 319 319 320
320 320 319 318 320 320 320 320 321 321 321 322 322 323 323 324 324 325 326 327 326 326 325 324 322 323 325 330 332 330 323 317 316 315 320 331 332 333 335 330 329 329 326 314 308 307 307 308 308 308 306 305 305 303 305 304 305 300 297 293 293 296 296 294 292 295 294 295 295 295 295 297 299 300 300 302 298 300 303 301 304 304 308 309 314 317 318 319
318 319 318 319 319 318 319 320 321 321 321 321 322 322 323 323 324 325 326 326 326 326 326 325 323 325 329 331 330 326 319 311 305 310 324 332 333 334 336 333 331 332 327 323 315 308 312 311 309 310 306 304 305 305 303 305 302 300 297 294 296 297 295 295 292 291 292 295 295 295 293 297 297 297 300 297 301 300 301 302 306 306 308 311 314 316 316 317
318 319 319 318 318 319 319 320 321 321 321 321 321 322 322 323 323 324 325 326 327 326 326 324 324 325 330 330 328 321 310 300 304 313 320 331 336 335 335 334 331 329 325 321 317 312 310 309 309 308 305 301 304 304 302 304 303 300 299 298 299 295 295 295 290 290 291 291 294 292 297 297 296 297 296 301 299 298 302 305 305 306 310 313 314 315 316 316
318 317 318 318 318 318 319 319 321 321 321 321 321 321 322 322 323 323 324 325 326 325 325 325 325 326 330 329 324 316 307 291 317 319 332 334 336 336 335 334 333 328 325 321 313 311 309 308 309 305 302 302 301 301 300 303 304 299 300 300 297 294 295 294 291 291 292 293 293 294 297 295 297 296 294 300 300 299 300 301 305 306 311 316 317 316 315 315
317 317 318 318 318 318 318 318 320 320 321 321 321 321 322 322 322 323 324 325 326 326 325 325 325 325 327 326 320 314 305 305 320 322 335 337 336 335 334 331 329 325 323 318 314 309 307 307 307 304 303 302 301 301 302 302 304 301 299 301 301 296 297 293 294 290 290 293 293 293 294 296 293 296 293 296 301 301 296 295 295 306 314 316 316 316 317 316
316 317 318 317 318 318 319 319 319 320 320 320 321 321 322 322 322 323 323 325 326 326 326 325 324 325 325 318 311 307 306 304 312 327 333 335 334 333 331 326 323 322 320 315 312 308 308 306 305 305 303 303 302 304 303 302 302 301 299 301 300 296 295 292 291 290 290 291 293 293 295 295 294 294 292 294 299 299 298 306 310 313 314 314 316 316 316 316
317 317 317 318 318 318 318 318 319 320 320 320 321 321 322 322 322 323 323 324 325 326 326 325 323 325 324 317 309 302 301 312 315 325 329 329 328 329 328 323 323 317 316 317 315 311 308 306 306 308 302 304 304 304 301 303 299 300 302 301 299 298 295 293 293 292 292 294 296 296 295 295 294 294 295 297 295 293 299 308 312 313 314 314 315 316 316 316
317 316 317 318 318 318 319 318 319 319 320 320 321 321 321 322 322 322 323 324 325 326 326 325 323 324 319 313 308 298 307 317 319 321 325 325 326 326 325 323 321 319 314 312 313 311 308 306 307 308 308 305 305 304 301 303 301 303 303 302 303 302 295 296 295 294 293 296 293 296 295 297 295 296 296 297 297 301 303 307 309 313 313 314 315 316 316 316
316 317 316 318 318 318 318 318 319 319 319 320 320 321 321 322 322 322 322 323 325 326 326 325 323 321 314 312 303 298 318 317 318 318 323 325 323 321 320 320 321 318 314 313 311 313 312 311 313 312 310 304 306 303 303 303 305 303 304 302 302 300 301 300 296 295 295 297 293 297 295 294 295 295 298 299 296 300 300 304 309 310 312 314 315 315 316 317
316 316 316 317 318 318 318 318 318 318 319 319 320 320 321 322 322 322 322 323 324 326 326 326 323 319 317 310 305 303 320 320 318 319 322 323 322 323 321 321 320 318 315 311 312 314 314 314 316 310 305 309 302 302 302 304 304 302 304 302 300 300 302 301 297 297 294 296 295 296 296 295 294 294 298 300 294 300 299 303 308 309 310 311 313 315 315 317
316 317 316 317 318 318 318 317 318 318 318 319 320 320 321 321 322 321 322 322 324 325 326 326 322 320 313 303 308 318 322 322 321 322 323 323 323 324 323 321 320 319 317 315 312 314 316 316 315 310 310 307 303 301 305 306 303 303 302 300 299 297 297 302 299 295 295 297 294 297 291 295 297 299 299 299 296 300 300 301 305 309 309 310 311 314 315 315
315 315 316 316 317 317 317 316 316 318 318 318 319 319 320 321 321 321 322 321 323 324 325 325 321 318 311 305 317 322 324 324 324 321 322 323 322 318 318 318 320 320 319 316 315 316 316 318 316 314 311 306 303 308 306 302 302 301 300 301 294 292 293 297 301 296 295 296 294 301 293 296 298 300 301 300 297 300 300 300 302 306 308 309 310 312 314 315
315 315 314 315 316 316 316 316 317 317 318 318 318 319 319 319 320 321 322 322 323 324 324 322 319 314 305 308 316 322 327 323 319 319 323 320 318 315 315 319 319 319 319 318 316 315 317 315 316 310 306 306 307 303 298 296 296 298 301 296 293 295 293 297 299 298 297 299 295 299 292 296 298 302 302 299 297 298 300 300 300 303 307 309 310 311 313 315
315 314 314 316 316 316 316 316 316 317 318 318 318 318 318 320 320 320 321 321 322 323 321 314 313 310 306 302 311 327 318 313 314 321 322 319 317 314 315 316 318 318 318 318 319 316 315 314 310 306 305 306 304 300 298 297 296 297 300 294 295 291 294 296 299 298 302 298 298 299 295 295 294 294 295 293 296 296 298 299 299 301 304 307 309 310 312 313
314 314 314 316 316 316 316 316 316 316 318 318 318 318 318 319 320 319 320 321 320 319 316 310 315 313 297 310 319 311 310 312 321 320 321 322 318 316 315 313 314 314 317 318 317 315 313 310 307 308 306 301 300 302 296 295 294 295 298 295 294 295 293 292 296 296 298 299 297 296 296 299 294 295 296 295 295 295 296 298 298 298 302 305 307 308 310 312
315 314 315 316 316 316 316 316 316 316 317 317 317 316 314 318 318 318 318 317 315 312 315 315 315 306 301 312 304 307 314 313 316 319 320 322 320 317 315 311 312 313 312 311 313 309 310 305 305 301 300 300 301 301 296 291 295 294 295 295 295 293 293 294 294 296 298 297 298 296 295 298 302 302 300 295 293 295 296 297 298 298 298 301 304 306 308 310
314 314 314 315 316 315 316 316 316 316 317 318 318 318 316 315 310 311 307 310 306 299 296 298 300 291 290 302 311 314 314 317 319 318 314 317 318 319 316 316 314 309 305 304 305 307 306 302 301 298 296 297 298 300 299 298 300 297 298 298 297 295 291 294 296 295 299 296 295 295 295 298 299 300 303 304 292 294 296 295 295 295 296 296 299 304 306 307
314 314 314 315 315 315 315 316 315 315 317 314 310 308 306 301 300 298 305 307 301 301 301 305 306 305 306 307 306 316 320 319 312 313 316 318 317 314 312 313 308 309 304 299 302 304 305 298 295 294 296 299 300 302 302 300 301 299 298 297 297 295 292 295 298 297 298 296 296 297 298 298 299 300 302 303 296 294 296 297 297 296 296 296 296 298 302 305
314 313 314 314 315 315 315 315 316 316 316 311 308 305 295 296 290 288 297 302 306 306 304 307 306 304 303 309 313 313 309 310 313 311 314 320 316 312 306 309 304 299 302 302 300 305 304 295 295 298 299 300 301 302 301 302 302 299 297 295 296 294 296 294 297 296 297 297 294 294 295 296 297 300 301 300 294 296 298 299 299 299 298 297 297 297 298 301
314 313 314 313 315 315 315 315 315 315 315 308 307 302 303 302 303 308 300 292 300 305 305 306 309 305 310 311 315 315 313 307 308 310 315 317 310 305 305 304 301 297 302 301 302 299 297 294 297 299 301 302 301 301 301 300 299 299 297 295 293 295 291 294 293 292 294 296 294 290 290 295 296 298 300 300 299 300 301 301 302 301 300 299 298 297 298 297
313 314 314 314 314 315 315 315 315 315 309 305 302 304 302 306 307 305 301 296 294 301 302 302 302 305 305 310 313 315 306 303 302 308 311 313 307 306 306 302 300 300 301 300 296 296 292 295 299 301 302 301 300 300 300 299 299 296 294 294 293 291 294 289 293 289 293 295 289 285 286 292 293 294 296 299 299 301 302 301 300 300 301 301 301 300 298 298
313 313 313 313 314 314 314 315 315 311 306 306 305 304 306 305 306 306 299 288 289 297 301 302 303 305 305 304 313 310 306 305 307 304 315 311 304 308 305 303 300 300 297 299 298 297 295 297 302 302 302 301 298 299 299 298 296 295 297 294 292 290 293 294 294 288 289 292 289 290 292 296 298 297 297 299 297 297 298 298 298 299 300 302 302 299 299 300
313 313 313 313 313 314 314 315 307 305 308 307 305 308 306 307 307 306 297 290 290 291 304 303 304 305 307 313 314 307 308 308 308 311 313 311 307 305 302 307 303 296 298 300 299 297 297 299 304 301 301 301 299 297 299 299 296 294 294 296 294 293 295 288 290 292 289 288 289 291 285 290 288 288 295 298 291 295 295 294 297 298 299 299 298 299 301 300
312 312 313 313 314 313 314 304 303 307 304 301 306 308 308 308 306 303 295 282 279 288 298 291 306 298 315 305 308 308 308 300 310 311 313 312 314 306 305 301 303 295 299 299 298 298 299 302 302 300 300 300 299 298 299 300 297 294 293 297 295 296 295 290 289 293 288 287 288 287 289 288 288 291 290 289 288 293 294 292 296 298 299 299 299 300 300 300
312 312 312 313 314 314 303 298 307 306 298 301 308 309 307 307 306 303 291 281 278 291 289 299 298 298 309 306 308 307 289 295 310 312 311 314 308 314 300 299 300 302 303 302 297 294 301 301 301 301 300 299 298 297 300 301 297 292 295 299 295 296 295 292 292 294 288 287 289 285 287 286 290 295 294 292 292 295 295 296 296 297 298 298 299 300 300 300
312 312 312 313 313 311 304 306 304 300 301 305 310 308 308 304 305 301 289 274 272 296 290 295 298 311 305 308 309 301 303 307 299 305 312 313 312 307 303 298 297 297 301 300 287 300 302 299 300 299 299 298 297 300 301 303 298 293 294 299 296 296 296 293 294 289 287 290 288 286 286 286 283 287 286 287 292 294 295 297 298 298 298 297 298 299 300 301
311 312 312 312 313 313 309 305 303 301 306 309 309 308 306 305 301 290 281 273 290 288 307 294 311 304 304 307 303 303 303 305 298 305 311 312 311 307 299 301 300 299 302 300 294 295 301 302 302 302 300 297 297 300 302 303 295 295 294 295 294 293 293 293 290 291 289 287 287 286 287 285 288 291 290 288 288 291 295 296 297 298 298 298 298 298 298 298
312 312 313 313 310 307 305 305 303 305 309 309 308 307 305 302 293 282 276 270 291 281 294 299 298 294 302 297 298 302 299 301 304 305 308 304 306 309 306 308 301 298 297 300 298 297 300 303 305 303 299 298 298 301 303 301 298 298 298 294 293 292 289 288 288 288 288 285 288 287 286 287 284 293 292 291 293 297 297 296 297 296 294 295 296 297 297 297
312 312 312 313 304 306 306 300 304 308 309 309 307 304 302 295 283 277 272 279 291 291 299 295 292 302 296 295 293 300 299 301 300 303 299 305 302 304 303 300 303 297 295 295 294 296 299 301 301 300 303 298 302 296 297 300 299 299 291 291 295 292 291 288 287 289 286 285 288 288 286 287 286 288 287 292 291 288 292 294 294 294 294 295 294 295 296 296
311 311 312 309 309 308 300 299 307 309 309 307 304 299 294 279 283 275 274 292 280 288 290 289 296 296 296 298 296 296 295 298 301 300 297 298 296 296 297 291 295 286 286 288 288 292 294 297 299 298 301 304 299 297 294 295 298 298 295 295 291 286 287 284 287 284 284 285 287 284 287 286 288 296 288 291 293 293 291 294 296 295 295 294 293 293 293 294
311 311 312 310 309 305 306 308 309 307 308 305 300 297 284 279 271 280 282 282 279 293 290 297 293 295 295 294 293 297 300 293 300 299 300 299 297 296 299 297 297 293 285 289 288 290 290 296 296 298 300 304 303 296 291 292 296 296 295 293 290 284 283 283 284 285 285 286 286 285 286 286 288 295 299 300 303 303 298 295 294 294 296 297 297 296 294 294
311 311 306 308 308 308 308 309 309 307 304 303 296 289 284 276 276 288 283 280 282 291 296 292 294 295 294 289 292 297 292 298 298 297 299 295 296 292 295 297 298 295 293 290 287 288 285 286 292 297 293 302 302 301 299 297 296 297 299 297 292 290 285 284 285 282 285 285 285 287 286 284 288 292 290 289 292 294 293 292 292 292 293 294 293 292 292 293
311 309 307 308 307 307 308 309 308 306 303 299 291 285 276 276 283 280 281 283 281 290 292 295 291 291 290 292 294 297 296 291 299 297 296 294 292 292 292 293 298 298 296 287 289 289 289 288 295 301 296 303 300 302 303 299 295 296 296 298 293 291 288 286 284 282 279 281 282 284 287 287 292 292 295 296 294 294 294 294 291 292 292 289 290 292 294 294
308 305 306 303 304 307 308 308 307 306 301 294 286 279 277 282 279 285 283 288 285 288 291 292 291 288 288 288 292 294 299 293 297 296 294 295 296 293 296 296 296 299 295 290 292 286 287 287 296 298 297 301 301 300 299 303 289 295 296 291 295 294 290 283 282 282 284 282 285 283 285 288 292 299 302 302 302 300 296 293 290 291 291 287 289 292 292 293
301 304 299 303 304 308 308 308 307 304 300 292 284 279 285 285 286 286 292 289 286 293 291 284 285 286 284 284 288 291 294 295 294 295 289 296 293 296 295 296 300 299 300 297 289 290 289 287 293 297 293 301 298 302 300 302 298 296 291 295 295 297 294 289 284 278 278 281 282 283 288 285 284 288 287 291 295 299 295 291 289 289 287 287 292 292 293 293
301 301 301 301 305 309 309 308 306 303 296 289 282 286 288 285 288 287 290 292 291 292 289 287 287 290 285 286 286 290 294 290 289 294 290 295 289 299 295 295 300 300 302 300 295 291 295 286 291 293 297 295 297 301 295 296 293 297 297 301 296 287 288 288 286 279 280 280 276 276 278 279 287 291 291 290 287 288 286 285 284 288 288 290 291 292 291 289
301 299 293 301 308 309 308 308 304 298 292 284 284 284 285 286 287 286 289 292 293 294 288 288 286 287 288 285 288 292 293 287 292 289 289 292 289 296 296 298 296 301 302 300 297 292 295 287 288 292 294 292 296 298 289 294 295 294 298 298 296 294 289 287 288 286 285 282 274 277 273 282 287 291 294 296 295 290 289 290 289 289 289 290 290 291 291 290
297 291 291 305 308 309 309 306 299 295 288 282 285 285 287 286 287 288 286 290 290 292 288 287 284 287 288 288 290 288 293 292 291 289 291 293 293 299 296 300 297 299 302 302 297 297 291 291 285 289 293 296 290 294 294 296 290 290 293 290 290 290 291 291 289 286 286 280 275 271 276 281 284 290 294 296 298 298 296 296 295 292 291 289 289 290 290 289
300 293 292 303 308 309 306 300 292 287 286 289 289 285 282 285 286 288 288 289 288 290 286 287 287 287 288 288 288 293 291 292 292 290 292 292 294 288 299 299 300 298 301 299 296 297 289 290 287 287 289 291 294 299 299 299 298 296 295 292 295 292 288 287 286 286 281 282 280 274 283 280 285 286 295 296 297 296 293 293 294 293 293 294 294 291 289 290
294 284 289 303 308 306 299 288 288 290 288 286 285 285 283 293 288 288 288 286 287 287 288 285 285 284 286 289 290 292 292 291 292 292 293 291 295 295 298 303 301 302 299 294 295 299 296 290 289 287 289 293 295 292 290 296 299 295 297 292 296 290 290 289 286 286 285 285 280 277 275 284 289 287 292 294 294 292 290 289 292 293 292 293 294 291 289 289
293 287 299 304 307 304 295 288 288 287 285 288 291 289 291 289 287 288 287 287 284 286 286 283 284 285 285 288 292 292 293 290 293 291 294 294 295 298 301 302 303 301 301 298 299 293 295 290 288 286 289 291 293 293 295 294 298 294 295 292 294 293 295 293 292 287 287 284 285 284 281 287 288 284 285 287 287 286 285 284 289 290 290 290 290 289 289 288
292 291 294 303 307 303 292 282 281 285 284 287 289 288 290 288 287 286 283 288 285 285 285 284 283 287 285 287 291 291 294 287 293 294 293 296 294 301 300 302 303 300 299 297 295 298 292 291 291 285 285 286 289 291 290 290 294 291 294 294 296 297 296 288 285 283 285 288 287 286 283 289 290 284 285 284 284 286 288 284 285 288 289 289 289 289 288 287
292 293 294 298 304 300 288 287 287 286 285 285 286 285 286 286 287 288 288 286 287 284 287 286 287 287 285 289 285 288 293 290 289 295 295 295 293 296 300 302 303 301 302 302 300 302 292 292 290 284 281 280 280 282 284 287 290 293 295 295 295 295 292 289 289 283 285 289 288 286 287 288 288 287 290 288 286 288 286 283 282 284 286 288 288 288 288 287
289 282 286 287 292 297 291 289 286 287 285 286 285 286 289 286 288 288 287 284 286 287 285 287 287 288 286 286 283 283 286 287 289 290 292 290 292 295 300 302 302 302 301 299 299 299 287 293 293 291 288 287 289 291 296 296 293 289 291 293 293 295 295 294 292 288 286 289 287 290 291 283 288 290 289 289 287 288 288 288 287 285 285 285 285 286 286 286
291 286 284 280 287 288 286 288 286 288 285 289 284 287 285 286 287 288 291 282 285 285 287 286 286 287 283 286 285 285 283 287 286 290 292 293 292 293 301 301 302 302 299 297 299 295 286 289 292 292 292 293 293 292 296 296 293 293 292 292 294 293 293 291 289 288 293 288 284 291 291 288 287 284 285 287 290 288 286 286 287 285 285 286 286 284 287 285
285 286 289 291 286 282 283 284 289 288 288 289 285 288 286 285 286 284 288 288 288 288 285 286 283 285 288 288 287 285 285 284 284 285 291 294 293 294 296 301 300 300 298 299 299 297 292 289 292 293 291 293 291 295 296 296 295 295 294 293 292 293 292 289 290 293 291 287 286 291 287 287 286 287 289 290 290 291 290 289 289 288 286 285 283 285 285 286
287 287 287 290 284 287 288 288 290 288 287 287 285 288 285 286 284 284 284 286 286 285 287 283 285 286 286 288 288 283 285 287 285 284 285 289 291 291 290 294 300 300 300 298 297 297 294 290 291 292 290 291 289 292 294 294 295 294 294 294 294 293 293 293 293 294 293 291 293 291 289 292 293 293 294 295 291 290 287 287 286 288 289 287 285 285 285 285
285 287 283 289 288 289 289 289 289 288 285 289 284 285 287 286 283 285 287 287 284 285 287 284 286 287 287 288 288 286 287 290 290 286 287 291 290 293 293 294 292 295 299 296 296 297 295 290 293 290 289 288 288 290 293 294 293 291 293 294 293 293 293 294 294 294 292 292 293 291 287 290 295 297 297 296 291 290 290 290 291 290 289 291 291 289 288 287
288 289 292 287 284 286 288 288 288 287 285 285 285 285 286 285 284 286 286 288 285 285 285 284 286 286 287 287 287 287 291 289 289 290 293 293 292 293 291 290 298 293 294 291 295 292 295 290 292 289 287 286 286 288 290 292 291 291 291 291 292 292 290 292 291 294 292 290 292 291 289 290 295 295 295 296 299 296 294 293 294 295 294 293 293 294 292 292
289 290 293 291 285 289 286 288 288 287 283 285 287 286 285 285 287 287 284 288 288 287 287 288 288 287 285 287 286 289 292 293 292 294 296 296 297 294 295 294 295 294 292 293 295 293 294 289 288 288 286 286 288 288 288 288 287 286 288 291 293 293 294 295 296 296 295 295 291 288 289 296 291 294 294 295 296 298 299 297 296 295 296 296 296 295 295 294
Wind_Speed
27 27 26 25 23 22 22 22 21 20 19 18 18 17 14 14 15 14 13 13 16 17 12 11 12 14 10 6 3 2 5 2 2 4 8 6 6 12 5 10 4 8 7 1 2 5 2 1 4 0 4 2 1 2 1 2 1 2 2 3 4 3 5 5 6 8 2 4 4 3 5 5 3 1 1 1 4 3 1 2 2 1 2 2 3 2 5 8
28 27 27 26 25 23 23 22 21 21 19 19 18 17 15 15 15 14 12 13 15 15 14 12 14 14 12 7 5 5 4 1 4 6 16 2 12 14 8 3 3 2 5 5 6 7 7 5 5 4 6 3 2 1 0 1 1 3 2 3 8 4 4 7 5 6 4 3 4 4 3 4 5 7 2 2 1 1 1 2 1 2 3 2 0 5 9 9
27 27 27 26 26 24 23 22 21 20 20 19 18 17 16 13 13 12 11 12 14 15 15 14 13 13 11 8 9 9 3 1 5 16 12 10 10 12 14 10 9 5 2 3 4 6 10 11 7 6 1 4 2 2 1 1 1 1 5 4 6 5 3 5 4 5 3 2 5 5 3 3 1 3 1 2 3 0 6 5 1 3 5 3 1 5 7 8
28 28 28 27 26 25 23 22 22 21 20 19 18 17 16 13 12 13 11 11 12 15 15 15 14 11 10 12 13 7 1 3 14 7 2 14 15 15 13 12 14 9 6 6 8 4 2 5 5 5 2 4 1 0 3 2 3 2 2 5 3 4 1 3 6 3 5 1 4 5 2 3 1 3 3 4 4 5 6 6 9 10 8 7 5 6 7 8
27 26 27 27 26 24 24 23 21 21 21 20 19 18 15 13 12 13 11 11 10 13 15 15 14 14 12 17 16 7 7 5 5 5 5 17 21 21 17 16 14 7 3 2 11 2 5 8 5 1 3 3 1 2 2 2 1 4 6 3 3 1 2 1 5 6 3 1 4 4 7 5 1 1 3 8 7 8 8 7 8 7 7 9 10 8 6 9
26 26 25 25 26 26 24 23 22 21 21 20 19 18 17 14 12 12 11 10 10 12 14 15 14 16 16 21 12 6 10 12 1 2 7 8 15 17 15 14 10 5 4 1 4 2 6 3 6 4 1 3 5 8 2 3 1 5 1 2 3 3 1 0 1 4 5 2 5 6 4 4 5 1 2 6 9 4 4 1 5 7 5 7 7 10 8 9
28 26 23 21 25 25 24 23 22 21 20 20 19 19 17 15 13 12 12 11 10 11 13 15 16 17 17 17 5 8 11 11 2 7 4 5 11 13 13 12 11 8 6 2 8 3 5 6 7 4 4 3 4 5 2 4 1 2 5 2 4 4 1 2 1 4 3 9 4 2 1 4 4 5 1 4 9 6 3 1 3 3 5 7 10 11 14 15
23 24 24 24 22 22 23 23 21 20 20 20 19 19 17 15 13 13 11 11 10 11 12 13 14 21 20 10 9 6 9 19 11 2 8 10 8 11 11 7 8 10 8 10 7 6 5 9 9 3 4 9 4 6 2 4 1 4 2 3 1 3 0 0 2 2 3 2 1 4 3 1 5 3 2 6 10 7 3 2 3 4 6 6 9 12 10 10
25 26 25 23 23 21 21 22 21 19 19 19 19 19 18 15 14 13 12 10 11 11 12 13 17 14 10 5 7 11 21 17 11 6 7 10 11 10 10 6 4 8 5 5 7 8 5 8 7 8 6 7 2 6 3 7 5 4 5 2 2 2 2 1 3 2 1 1 1 4 2 2 3 1 3 9 6 3 1 3 5 5 6 8 9 11 11 11
25 27 28 26 23 21 20 20 21 20 19 19 19 19 18 15 13 13 12 12 11 11 12 13 18 19 11 6 5 12 22 14 10 6 7 9 11 13 9 7 10 7 7 7 3 9 8 5 10 3 9 2 4 2 3 4 4 4 4 3 4 1 3 1 3 0 0 0 0 3 2 1 1 3 7 2 3 3 3 3 3 7 8 9 8 9 9 11
25 24 27 26 23 21 21 20 20 20 19 19 18 19 17 15 13 13 13 13 12 12 12 14 12 14 10 8 13 20 5 20 15 13 11 10 11 11 9 7 7 7 4 1 11 12 9 2 1 4 0 4 5 0 3 3 2 5 7 3 1 2 1 1 2 1 0 0 3 1 3 1 2 1 8 1 1 2 4 4 5 5 7 8 9 9 8 9
26 26 25 24 23 21 20 20 20 19 19 19 19 18 16 14 13 12 13 13 13 13 14 13 16 10 9 13 13 13 5 7 12 12 12 12 9 10 12 14 13 10 11 9 7 7 6 2 5 3 5 3 3 3 3 2 2 4 8 4 1 2 1 1 3 2 3 2 3 4 2 6 3 7 3 6 3 3 4 5 5 7 7 6 6 7 7 11
21 23 22 23 22 22 21 21 20 20 19 18 18 17 15 14 12 13 12 13 14 14 14 14 10 11 10 14 16 2 1 9 11 14 10 9 5 6 8 11 15 13 10 8 8 9 8 4 4 8 2 5 6 3 1 5 1 4 2 4 2 0 3 6 2 1 4 1 4 1 6 11 11 9 5 5 4 3 3 5 6 7 6 6 6 8 8 6
25 19 22 21 22 21 20 22 21 19 19 19 18 18 15 13 12 12 13 12 12 15 14 14 9 8 13 6 2 3 2 9 14 13 11 11 10 3 6 5 6 8 6 2 2 4 6 7 6 4 1 4 4 1 5 2 2 5 1 1 3 3 5 2 5 4 4 1 3 1 7 12 1 3 7 6 6 8 7 8 7 7 7 7 7 8 9 10
24 24 25 27 23 22 21 21 21 20 19 19 18 17 15 13 12 12 13 12 13 14 15 9 6 5 12 4 3 6 14 8 11 12 11 13 13 5 5 5 6 6 7 4 1 5 7 7 2 1 2 3 6 4 3 2 2 1 4 5 1 5 4 2 1 9 9 0 1 4 6 15 3 3 2 1 6 6 8 8 8 8 8 8 7 8 9 11
25 25 28 25 23 22 22 20 20 20 20 19 18 16 13 11 11 12 13 10 12 14 7 8 10 11 5 7 3 7 9 10 13 14 8 13 11 7 8 6 7 6 7 2 3 2 6 3 6 5 3 0 5 7 5 3 1 1 7 2 6 2 5 3 2 5 9 4 0 8 9 2 1 3 4 1 5 4 6 8 8 7 8 7 7 7 8 7
25 26 27 24 22 22 21 21 20 19 18 17 16 15 9 9 10 11 11 11 7 5 7 5 6 11 11 2 5 12 7 9 10 5 5 6 11 11 8 6 3 7 6 4 4 4 2 6 1 0 0 4 3 8 6 7 4 5 2 3 1 7 2 3 3 2 2 5 5 5 8 11 1 2 1 0 5 6 6 9 8 7 7 7 5 6 7 8
26 25 23 23 22 22 21 20 19 19 18 17 15 9 5 10 10 9 7 5 5 2 3 6 5 4 11 5 8 10 8 6 11 10 10 2 14 12 9 4 3 7 7 3 3 7 3 7 2 7 3 5 8 10 14 14 10 5 5 3 3 1 4 4 5 3 7 4 7 5 11 17 9 5 4 2 4 6 7 8 9 10 9 8 7 7 9 9
26 26 26 24 21 22 22 20 20 19 18 17 14 7 13 11 4 4 2 5 8 7 7 9 9 17 4 14 11 3 6 6 8 14 8 12 5 8 8 7 7 10 5 6 3 5 1 4 1 5 12 11 15 16 13 5 11 11 9 8 5 8 4 7 5 1 10 6 7 6 11 16 13 12 12 10 5 5 7 5 6 7 6 6 7 8 9 10
26 25 27 23 22 20 19 19 20 20 19 12 7 5 4 4 3 4 4 9 13 10 5 10 16 12 6 1 14 2 6 14 14 4 11 8 13 11 7 5 3 3 7 8 6 9 3 11 13 17 18 15 7 9 8 4 8 9 8 6 8 6 4 1 2 0 3 2 9 12 15 17 13 11 13 13 1 4 7 9 10 8 8 8 8 10 11 12
28 27 25 23 24 22 22 21 20 19 21 9 10 8 9 12 10 8 9 8 11 17 16 9 20 18 4 3 10 16 11 9 11 13 15 13 14 13 4 7 7 6 7 7 8 3 7 10 17 18 10 12 12 6 3 4 8 10 7 6 9 7 11 2 4 1 2 3 4 5 9 15 12 10 11 4 2 9 12 13 12 12 10 10 11 12 13 13
30 28 25 25 24 21 21 21 21 19 21 7 11 10 5 16 8 1 7 9 15 19 17 15 6 13 2 2 3 7 9 4 10 11 7 17 12 13 4 9 10 12 8 6 5 7 11 17 22 14 9 10 9 10 8 8 7 9 8 7 5 8 1 2 1 1 1 3 9 0 6 13 9 10 13 11 13 13 12 13 14 12 12 11 11 12 11 6
28 27 24 24 23 23 22 22 20 21 10 10 12 14 11 11 4 2 4 4 4 10 15 15 12 6 13 5 3 2 14 13 11 15 12 15 13 13 11 10 12 10 9 10 11 11 13 20 18 10 9 14 10 11 9 9 7 9 6 8 10 2 5 5 1 1 1 3 1 1 4 13 7 7 13 14 12 14 11 11 13 11 13 14 14 12 10 12
26 25 24 24 23 23 24 23 21 14 12 14 15 19 9 3 4 3 8 4 2 5 14 15 12 8 7 11 4 8 14 10 15 19 13 15 14 10 12 16 15 11 11 14 16 14 18 5 9 12 9 13 14 13 12 10 8 3 10 6 4 4 2 2 2 1 1 1 3 3 9 13 10 10 8 11 10 10 11 8 10 10 12 13 8 5 10 14
25 25 26 25 24 24 22 21 12 10 12 14 14 11 6 6 4 5 5 1 4 3 11 10 7 5 3 3 4 11 6 2 8 16 14 20 17 14 13 7 8 12 9 14 16 15 15 3 17 14 13 14 12 12 14 11 8 4 3 5 4 5 5 3 2 2 2 3 1 1 4 9 2 6 12 6 4 7 6 7 13 16 15 11 11 13 11 10
25 25 24 23 23 23 24 11 11 11 13 14 11 10 9 7 5 3 3 1 5 3 4 12 9 11 6 6 3 5 2 9 5 8 10 12 19 16 6 6 6 14 14 15 13 8 12 6 16 15 14 11 12 10 10 9 8 8 6 8 5 6 5 4 2 2 2 4 2 2 8 10 0 3 4 5 3 13 5 5 12 12 13 10 12 13 12 12
25 25 25 23 22 24 15 9 9 12 14 12 8 10 7 7 6 6 5 3 9 5 9 3 13 3 9 6 10 11 12 6 7 7 9 10 14 1 15 7 4 2 5 2 2 9 6 9 11 14 16 16 13 13 11 15 9 5 4 10 7 6 6 4 5 5 2 1 3 1 1 5 13 10 4 3 6 11 9 10 13 12 12 10 10 11 11 12
24 24 24 23 24 25 11 8 14 15 19 10 14 13 11 9 12 8 1 7 8 10 8 8 3 2 5 10 10 13 1 18 11 13 13 10 13 11 16 17 16 18 12 8 16 1 17 12 19 19 17 14 16 12 12 12 8 3 1 9 8 8 6 6 5 2 0 2 7 2 1 2 7 8 3 1 5 9 13 15 14 11 11 10 10 12 13 14
24 24 24 26 27 25 7 8 14 17 7 11 11 12 8 10 9 7 4 6 3 3 4 8 2 4 6 15 12 12 1 7 6 10 7 4 4 6 13 18 14 12 8 13 13 2 2 13 15 18 14 13 5 8 12 15 7 1 7 10 7 7 5 3 3 4 1 1 10 7 4 5 12 8 3 1 1 11 12 8 10 10 9 9 10 11 10 7
23 23 24 25 21 15 6 3 9 5 10 12 13 12 12 13 8 9 11 9 2 6 6 3 11 12 11 15 13 14 8 6 1 8 7 6 3 3 5 8 11 13 10 8 8 2 3 6 8 11 12 6 7 6 11 8 5 7 11 9 7 7 4 4 4 2 0 7 11 9 8 5 6 11 9 7 11 9 7 5 6 5 5 6 7 8 8 9
23 24 25 26 14 12 11 11 8 13 12 14 15 16 12 9 9 12 15 4 3 2 5 11 12 19 19 22 17 15 6 8 10 17 8 6 8 7 10 9 4 6 7 9 10 3 3 4 6 2 10 3 11 6 6 9 14 10 3 4 8 5 4 3 1 0 4 10 2 11 11 7 10 6 2 6 3 2 5 6 7 6 6 7 5 5 7 7
23 24 26 19 11 11 16 16 13 13 14 19 21 15 11 13 7 14 9 3 7 6 9 12 16 14 17 16 12 16 12 9 13 16 14 11 12 13 15 8 12 9 7 10 10 1 7 11 4 2 5 21 8 12 3 4 8 9 8 9 9 3 2 5 2 7 12 7 2 1 8 1 15 19 1 5 9 7 7 8 9 7 7 6 6 7 6 5
22 22 26 16 13 11 13 6 10 10 15 21 16 13 11 14 18 10 6 4 2 10 8 15 20 20 22 19 15 14 8 11 16 18 18 14 13 13 16 17 20 9 8 15 10 9 3 4 5 4 1 9 17 14 5 7 8 12 13 12 10 6 7 9 7 2 2 1 2 7 1 7 2 13 13 19 19 14 7 8 7 8 10 9 8 6 5 6
22 22 16 14 14 12 9 13 11 16 18 18 15 14 11 14 11 16 12 3 3 3 10 11 17 19 23 19 16 16 12 8 18 14 21 14 16 14 11 11 19 11 6 8 9 11 10 10 8 16 7 7 19 17 20 14 15 13 6 12 10 8 4 8 5 9 5 2 0 2 2 7 9 8 1 2 5 9 8 5 6 6 7 8 6 5 6 8
23 17 13 12 11 9 11 12 16 21 16 16 15 15 19 15 5 17 14 6 3 1 7 10 18 19 16 13 12 15 7 7 18 17 15 18 16 14 17 15 15 9 3 13 5 2 11 1 6 13 2 15 16 11 11 11 6 5 5 4 5 9 3 3 2 3 3 3 0 3 7 2 9 4 10 6 7 9 9 9 6 9 8 5 6 7 9 9
18 10 12 11 14 13 13 12 20 21 17 15 14 16 18 14 10 8 10 4 3 4 9 12 11 17 15 15 5 11 8 0 18 16 13 17 17 17 18 15 20 22 13 13 8 8 4 8 9 5 3 16 13 10 6 16 12 7 6 12 9 4 9 5 2 0 1 2 8 3 8 5 9 17 14 16 15 13 8 7 5 9 8 3 7 8 8 9
11 11 13 13 15 13 13 13 16 18 16 17 17 17 14 7 4 7 9 16 5 8 13 16 11 13 14 12 13 18 12 5 9 15 11 15 12 14 16 11 18 24 17 9 2 2 12 3 1 13 3 8 2 12 9 10 4 8 7 8 4 3 4 3 4 2 1 5 7 5 14 4 3 15 2 2 11 17 7 3 5 7 5 6 9 8 9 8
12 10 10 14 14 15 15 16 19 14 15 17 18 10 10 13 1 3 1 10 6 4 10 11 6 13 13 15 12 16 15 12 5 10 11 18 3 17 16 13 15 19 20 6 9 5 6 6 2 3 8 5 3 9 3 1 2 8 13 10 12 5 8 1 3 6 5 8 4 3 1 4 10 14 1 2 5 5 3 2 3 5 5 9 7 8 7 5
8 10 9 14 13 16 16 19 18 17 15 13 16 15 6 7 2 3 3 7 4 6 10 7 6 8 10 16 16 17 18 15 10 6 11 11 9 16 20 14 17 20 18 9 9 3 4 6 1 4 5 3 2 6 13 9 2 1 5 9 2 4 3 7 7 0 2 7 1 6 2 10 10 8 8 17 10 7 5 6 5 6 7 6 6 7 7 6
12 8 7 11 18 18 18 20 16 15 12 17 16 9 5 11 3 3 2 3 7 9 5 6 3 12 11 13 18 16 16 20 14 8 8 7 7 15 21 15 14 21 19 14 6 7 6 1 6 1 1 10 7 6 14 17 12 4 8 6 2 3 1 4 0 5 5 4 4 1 6 7 8 6 9 13 16 14 9 11 9 8 7 7 7 7 6 5
9 5 3 8 20 18 20 17 15 17 14 8 10 7 4 8 4 1 2 2 2 4 5 5 8 10 9 11 12 11 10 16 12 11 7 8 12 10 14 19 16 21 17 12 4 6 4 6 9 5 5 10 14 14 12 15 15 13 13 14 14 13 7 11 11 2 2 4 7 5 18 2 2 3 9 11 12 8 6 8 10 8 9 9 9 6 5 6
11 7 5 12 22 24 19 19 8 8 7 15 14 5 4 3 5 4 3 1 4 3 3 4 1 3 6 10 8 12 11 11 13 12 8 9 13 8 17 26 21 23 21 16 15 10 7 3 9 10 9 11 4 2 1 5 10 5 7 7 8 2 2 6 13 6 1 4 4 4 4 12 7 4 7 8 7 6 6 3 9 8 8 8 10 6 4 6
11 5 3 17 23 25 20 14 8 9 6 6 10 3 3 3 4 3 3 1 1 1 3 2 5 4 1 4 10 9 12 9 17 15 10 10 14 15 11 28 21 24 21 13 14 3 8 5 9 3 3 1 3 3 8 4 7 3 2 3 10 14 14 12 10 4 6 2 4 4 8 8 2 1 3 5 5 5 5 4 7 7 6 7 7 7 6 6
6 6 3 8 25 22 18 13 14 14 5 6 9 6 2 2 4 5 2 2 3 1 4 2 2 1 4 2 6 14 15 7 9 12 10 9 6 11 8 23 24 17 21 15 16 13 9 7 14 8 5 2 5 3 3 6 1 5 10 10 11 13 13 1 6 3 5 11 5 7 17 13 2 1 1 2 3 7 8 4 6 8 8 7 7 6 5 6
5 2 2 5 20 19 16 4 14 14 10 15 14 11 7 4 3 1 3 4 1 2 3 1 2 2 3 1 4 3 10 5 6 12 6 5 4 2 10 21 24 17 17 13 15 13 3 10 16 14 13 12 13 15 14 12 17 12 12 19 18 19 15 9 15 5 12 12 13 9 19 4 1 0 2 1 2 5 5 4 4 7 7 7 6 6 6 5
8 8 3 4 1 16 2 4 1 12 13 16 15 9 12 7 2 4 5 2 2 3 4 2 1 2 4 3 3 3 4 3 2 6 10 2 2 2 7 20 22 14 19 13 11 8 2 5 11 17 20 19 22 25 27 26 11 10 11 17 20 20 20 17 9 10 18 11 12 21 22 5 2 2 1 2 3 5 7 7 5 4 5 6 6 7 5 5
1 7 7 6 5 2 7 5 5 7 12 15 12 9 12 10 5 3 4 2 2 3 2 3 4 5 1 6 7 4 0 5 2 5 15 9 0 1 10 19 19 19 17 10 16 8 3 7 16 17 20 17 7 12 14 11 14 20 21 22 19 17 14 15 14 19 18 13 15 18 12 10 6 2 4 5 6 5 6 6 6 4 4 3 4 5 6 4
5 1 1 3 4 10 12 7 11 8 7 14 5 7 14 15 8 5 2 1 3 0 6 2 1 2 11 13 7 8 4 4 2 3 5 11 5 3 5 14 17 17 17 8 11 12 9 13 15 18 21 13 6 7 12 15 18 18 21 21 21 18 16 16 19 22 12 7 18 19 6 7 4 5 4 7 6 5 5 4 3 4 6 5 4 5 5 4
1 4 2 1 6 8 12 14 17 13 13 9 2 10 15 17 10 3 3 3 2 1 1 6 8 4 3 3 8 5 7 12 6 1 3 4 9 5 5 5 12 17 18 11 10 5 7 11 8 13 14 10 1 6 11 14 12 10 13 16 18 20 23 25 27 29 24 18 24 12 13 19 14 10 8 8 7 7 2 2 3 3 5 4 4 5 5 4
7 10 4 2 7 12 14 12 13 14 11 11 8 5 12 16 13 7 2 2 5 3 1 3 7 8 7 5 5 12 12 9 13 11 5 5 6 7 9 7 5 3 13 14 8 8 13 12 14 8 11 9 5 5 9 14 13 12 13 11 11 13 18 23 24 21 12 16 21 11 7 15 11 11 11 8 5 4 2 3 4 5 5 6 6 6 6 5
2 2 6 15 10 8 12 12 14 14 9 2 10 4 7 12 12 8 5 2 1 5 5 8 11 6 4 5 4 4 5 6 8 7 6 4 7 1 3 2 2 12 9 5 10 5 13 4 6 5 10 7 3 8 10 12 14 16 13 12 14 17 18 20 20 21 17 23 28 21 18 20 12 9 6 8 12 11 11 8 7 7 6 7 7 9 8 7
1 1 4 9 11 7 12 8 9 11 8 3 5 8 5 10 10 10 8 2 2 0 3 9 11 10 3 5 11 11 10 10 9 5 3 2 4 6 4 2 3 4 11 11 5 8 13 8 9 9 11 13 11 11 12 7 5 7 14 18 22 25 26 27 26 24 23 26 22 18 21 23 3 9 8 11 14 19 18 9 9 10 9 9 10 10 10 8
Wind_Direction
214 213 211 212 211 211 210 210 210 208 207 208 214 224 223 224 230 232 232 215 217 219 222 213 212 233 234 210 183 157 135 131 146 200 221 220 172 218 198 213 95 36 18 311 129 121 213 219 167 309 89 105 297 117 231 48 46 71 146 115 237 201 158 205 174 187 211 142 223 184 203 138 198 177 202 86 40 67 357 208 308 303 256 241 268 324 130 136
210 210 211 210 211 209 209 208 208 208 207 207 212 219 223 222 227 232 228 221 220 217 211 213 214 218 217 209 142 126 113 62 244 244 232 176 206 206 187 103 247 4 94 279 188 174 163 215 199 131 135 127 314 103 25 170 60 110 110 125 234 167 234 161 200 191 121 235 173 179 173 164 210 146 217 127 264 60 183 257 17 301 287 354 72 120 132 145
209 209 209 210 209 209 208 208 206 206 206 207 209 217 220 221 224 229 222 221 217 220 216 209 204 220 207 189 162 138 115 311 291 253 249 207 215 210 202 143 131 216 130 223 263 184 183 195 172 124 48 106 1 166 62 205 81 217 119 210 243 206 235 195 162 196 235 141 140 166 200 153 236 152 113 191 171 61 204 204 298 251 235 216 208 142 149 157
212 210 210 208 208 208 207 206 205 204 204 205 209 216 218 216 221 226 218 220 213 216 220 215 199 209 200 162 131 143 102 333 264 262 185 208 206 212 202 171 172 178 131 265 291 272 76 95 132 126 106 95 241 78 135 230 131 225 106 197 231 206 168 223 173 210 211 171 166 159 97 158 244 199 158 164 116 252 262 236 185 204 214 192 182 164 160 165
219 212 209 209 207 207 207 205 204 202 202 203 206 215 218 214 217 225 222 217 211 199 208 222 210 205 184 145 146 109 89 341 271 202 218 209 200 196 187 177 179 182 149 9 321 245 167 151 145 51 103 170 77 90 239 196 181 123 205 184 170 148 205 227 180 162 146 115 130 133 136 208 97 79 136 152 173 221 212 234 223 217 191 155 171 181 165 174
215 214 210 208 206 205 205 206 205 203 202 201 204 214 218 212 212 220 222 217 214 203 205 211 217 209 172 146 145 134 123 223 11 341 296 198 192 179 162 157 147 149 124 23 285 269 156 184 143 161 95 99 177 161 256 168 153 180 265 211 172 190 167 274 190 181 125 126 155 152 203 105 157 198 193 170 203 224 212 198 212 217 197 176 151 151 172 180
212 208 210 209 208 206 205 206 206 205 203 202 205 211 218 210 208 216 220 217 215 204 201 199 214 211 177 142 137 125 188 231 81 281 53 128 156 166 138 135 131 114 110 155 265 234 188 173 170 184 131 135 221 175 206 151 3 135 201 160 196 154 176 174 176 122 136 128 198 205 29 154 147 206 134 196 239 222 185 240 232 178 131 140 151 177 178 186
213 212 203 205 209 205 205 205 207 205 204 204 204 211 217 211 200 210 215 214 215 208 203 196 211 211 164 148 127 181 204 229 203 12 75 116 121 132 108 117 147 144 156 191 218 234 175 175 184 134 154 168 211 163 182 84 3 179 227 225 114 120 199 53 96 65 140 153 138 127 138 237 189 184 100 244 245 247 272 93 109 126 137 160 168 181 189 191
203 213 203 200 206 203 202 205 206 206 203 203 205 211 216 212 198 202 210 211 214 211 204 192 211 190 158 125 163 179 226 218 189 86 88 112 125 122 127 130 153 155 170 188 223 271 193 205 177 178 212 178 214 141 196 140 274 190 206 141 137 121 103 122 71 65 43 119 152 109 236 280 244 251 254 243 257 261 149 93 119 132 154 176 188 187 186 192
199 208 205 198 200 198 198 201 205 205 205 203 205 211 215 213 197 196 206 210 213 210 205 200 201 188 187 159 132 204 237 151 165 135 114 124 129 142 162 145 142 163 154 206 260 253 230 201 182 187 126 41 153 172 185 188 214 179 148 141 145 159 127 32 161 302 239 196 213 172 248 216 5 152 262 279 239 116 88 113 147 155 185 194 192 195 199 193
203 206 206 195 196 194 195 199 201 205 205 205 208 211 213 213 198 192 201 210 212 210 206 207 182 167 188 166 173 219 89 136 181 188 133 140 140 143 156 132 165 164 168 153 211 238 259 210 75 150 38 210 130 11 156 221 118 136 157 113 62 10 80 111 101 206 112 250 157 132 234 287 296 93 228 220 43 168 141 170 177 192 198 203 203 199 202 206
196 203 202 194 190 190 192 195 199 202 204 207 211 213 212 211 199 189 197 208 214 209 206 211 178 184 189 195 205 214 127 134 160 155 152 156 167 176 163 158 173 182 174 196 240 252 246 301 136 239 180 133 151 117 246 198 93 147 134 179 276 45 284 237 197 211 150 249 154 162 348 276 188 221 215 238 145 159 167 192 203 207 213 210 212 210 205 212
192 199 198 194 189 190 192 195 196 200 204 206 211 215 211 209 198 189 190 205 215 213 206 206 167 201 212 204 217 61 249 104 129 140 136 148 139 188 171 163 174 166 165 189 223 242 266 245 210 172 307 135 166 150 187 87 22 104 43 129 53 16 293 229 123 70 142 246 161 158 257 235 234 222 226 229 152 120 167 216 222 226 220 216 208 213 220 216
184 193 195 194 188 189 193 197 196 198 203 208 211 215 210 205 198 189 191 198 211 215 208 197 186 204 221 238 98 175 102 142 130 129 139 134 120 98 87 91 126 146 133 125 202 209 253 297 298 175 74 130 172 234 78 12 9 145 216 69 197 125 252 274 179 149 160 213 180 113 241 256 178 261 235 221 172 175 209 223 223 224 225 219 212 213 217 220
184 191 196 196 187 186 191 195 196 197 202 208 214 217 210 202 197 190 191 196 207 214 208 172 213 190 230 264 23 245 131 113 149 152 149 147 128 104 113 111 108 143 147 141 172 180 168 205 144 214 167 282 108 82 52 52 8 149 112 231 26 186 281 300 178 156 185 274 145 105 260 260 198 233 231 312 186 191 221 226 230 225 224 220 217 219 222 225
187 190 197 192 183 185 189 193 196 196 199 206 215 219 209 194 193 189 196 195 209 209 187 174 205 215 299 241 214 136 138 178 190 162 164 153 163 159 142 113 128 118 127 135 139 201 168 179 162 187 121 330 124 127 102 82 302 304 207 87 199 153 240 358 207 219 198 119 304 181 243 1 317 272 298 245 150 179 222 243 241 239 239 232 225 225 232 239
183 190 194 187 180 182 185 190 194 197 198 205 212 220 198 180 188 193 200 198 206 167 176 196 196 192 224 82 106 173 183 200 129 129 126 174 158 132 112 91 89 109 115 57 60 194 209 171 197 231 54 153 153 128 139 208 191 199 168 166 186 193 191 235 301 253 232 157 205 244 235 239 180 234 302 38 157 158 210 243 252 250 247 238 231 233 239 235
180 184 187 182 179 180 184 187 192 194 197 203 205 200 182 189 193 193 201 170 81 124 184 310 205 173 242 215 186 187 187 154 151 145 133 131 129 131 124 117 94 109 123 99 355 186 222 177 186 198 136 163 169 173 191 212 185 140 157 165 248 290 202 203 174 250 143 235 205 219 242 252 243 265 260 218 186 165 204 223 239 242 239 239 228 228 234 238
180 184 188 183 175 180 183 186 190 193 195 199 199 123 58 55 48 34 135 158 178 148 186 203 182 204 173 199 235 183 155 127 105 127 133 131 112 97 82 92 116 118 142 161 182 174 249 71 69 145 199 186 194 192 195 104 143 169 164 189 205 209 208 211 229 262 168 174 224 211 232 250 245 252 263 248 177 185 231 234 251 255 256 251 239 235 232 232
175 178 184 180 173 171 176 181 190 193 192 193 169 145 101 173 137 213 212 202 213 213 239 162 199 227 275 18 189 64 114 138 134 145 123 121 115 110 95 107 77 117 146 189 151 206 146 188 190 202 203 193 180 193 171 154 133 146 171 183 221 221 275 278 244 310 206 84 219 219 231 244 245 237 242 253 169 237 249 247 243 243 245 245 244 237 235 232
175 179 179 174 177 174 177 182 187 191 190 161 148 165 194 167 158 197 182 227 213 220 224 210 200 208 186 131 136 144 141 175 147 160 153 130 116 120 171 113 135 180 197 181 171 130 175 209 219 213 187 171 179 177 130 121 145 152 166 187 223 187 236 227 184 145 200 170 273 252 262 262 255 263 264 264 172 240 232 240 243 241 235 236 235 239 236 238
174 173 172 176 176 171 173 179 184 191 188 137 167 191 192 193 172 287 150 193 219 216 219 236 204 214 187 283 270 148 123 141 140 143 164 135 147 153 191 157 165 199 185 186 123 155 194 215 219 203 174 158 160 177 178 171 163 162 175 199 219 234 25 306 271 330 190 127 258 290 268 263 251 246 259 252 240 242 231 229 237 233 237 236 234 238 244 250
174 172 169 174 176 174 175 178 184 187 171 172 184 195 213 197 198 59 116 321 274 210 218 225 235 191 206 199 172 238 169 170 155 151 180 143 149 173 149 168 185 189 190 174 185 173 200 228 217 159 173 158 170 174 154 173 164 168 163 165 215 124 161 270 292 39 232 168 266 63 312 280 270 233 244 248 237 242 235 229 238 228 234 235 232 224 227 234
173 173 172 177 173 173 175 177 182 175 187 184 190 201 197 115 141 147 165 195 245 173 200 218 221 227 210 187 165 194 182 181 155 167 170 151 152 141 155 178 180 186 191 182 195 200 208 275 158 169 166 167 170 174 172 161 189 180 175 177 152 175 227 155 250 17 344 323 44 323 305 285 253 255 257 247 242 252 251 231 243 245 236 240 250 237 218 231
169 172 173 174 173 169 177 172 179 192 178 187 206 204 96 150 139 174 153 306 267 278 174 205 209 261 209 339 201 186 194 176 190 159 174 153 147 145 191 173 170 199 177 193 207 213 225 235 144 171 171 174 166 181 187 172 181 165 222 165 153 142 149 60 39 93 27 332 336 176 301 264 286 245 246 271 5 260 238 220 240 240 237 230 235 234 232 235
172 175 173 169 167 168 160 169 198 180 182 201 195 161 159 153 111 91 111 149 261 211 112 208 117 238 125 210 148 159 355 207 149 165 166 168 146 161 140 183 171 195 185 190 212 225 208 234 170 169 162 161 173 188 187 163 184 170 236 151 135 141 131 134 150 94 287 228 290 36 214 279 5 266 244 253 248 259 278 230 248 243 244 229 227 231 228 226
174 172 172 168 167 160 155 204 155 157 182 209 180 155 153 137 120 95 125 212 241 161 160 119 166 225 168 162 158 126 210 185 85 142 172 168 157 70 147 158 142 211 185 150 206 214 159 207 162 163 165 171 180 190 182 176 154 204 187 135 122 114 143 177 160 197 233 273 293 43 137 252 291 261 218 233 255 266 274 255 246 245 242 234 228 229 227 223
174 172 171 167 169 166 185 127 148 179 201 173 158 154 139 127 89 59 356 195 229 114 186 167 215 351 189 152 167 181 353 128 155 186 177 179 130 167 171 172 177 178 170 172 213 104 185 186 176 169 170 180 193 187 158 163 155 204 195 141 151 156 175 165 169 171 207 16 274 231 261 283 251 268 312 20 255 265 255 250 251 244 242 237 230 231 229 226
175 173 172 172 173 172 136 152 172 195 162 109 137 138 121 111 109 140 202 237 135 117 95 136 112 126 113 154 174 202 255 178 154 145 164 161 214 139 175 177 172 175 178 189 197 302 232 184 181 166 170 189 144 121 145 164 131 279 110 74 76 74 68 120 136 166 268 147 242 184 179 221 279 257 166 2 257 256 247 248 255 248 240 237 239 241 241 248
177 173 174 172 169 173 174 152 192 152 121 135 136 121 113 100 124 197 200 230 87 183 167 136 168 157 143 160 177 197 169 191 74 125 156 161 180 98 4 121 143 159 188 211 234 263 257 310 176 160 177 155 128 128 148 124 99 149 92 85 57 58 58 30 82 101 76 245 238 170 196 167 295 259 200 165 225 233 256 257 263 279 269 255 242 239 236 231
179 176 177 168 175 176 161 188 177 144 145 135 120 122 119 140 197 188 217 200 70 93 124 152 160 148 166 166 180 184 188 154 144 145 158 140 156 141 126 103 126 154 189 192 215 232 278 134 163 239 123 109 106 73 11 128 145 126 104 120 98 27 34 32 349 63 207 252 157 181 172 173 208 290 267 237 293 243 194 227 249 260 259 265 265 251 242 232
181 179 178 176 165 147 178 192 162 150 145 132 130 138 146 164 210 212 182 57 169 189 174 145 153 162 152 175 183 172 179 144 158 157 166 166 158 162 172 167 142 158 184 192 193 283 187 171 175 86 153 135 130 100 4 104 152 119 119 131 148 178 132 228 149 203 218 223 316 113 140 8 227 242 213 269 254 258 217 225 233 244 268 265 260 256 252 244
181 182 181 176 154 182 193 130 139 141 140 135 138 154 166 190 205 192 216 138 268 157 191 152 167 161 165 172 195 173 181 182 159 164 163 172 168 186 174 168 170 167 179 179 166 176 250 168 138 113 203 165 143 155 149 154 194 153 167 164 166 163 189 213 196 300 339 308 331 150 335 279 7 285 238 247 260 254 234 228 234 236 248 258 257 253 245 243
184 182 184 183 180 175 156 145 145 130 144 143 154 155 195 205 207 182 196 201 213 358 151 168 151 162 164 183 183 168 185 183 164 169 164 167 173 175 176 188 172 169 63 150 189 171 150 186 206 146 190 195 170 179 177 171 172 187 167 176 188 180 176 215 171 209 224 165 222 283 126 227 141 236 332 270 250 271 286 240 232 247 253 256 266 279 269 259
184 183 175 181 182 173 158 153 143 143 145 155 157 185 192 204 175 183 195 190 288 192 167 156 159 153 181 188 179 184 169 167 173 157 182 165 185 173 173 182 179 184 106 143 202 195 206 258 183 170 94 177 183 177 160 119 133 203 164 99 197 214 125 184 194 136 156 138 235 219 214 183 205 274 295 238 236 260 252 265 262 267 257 264 285 269 261 257
180 188 175 189 184 178 164 161 149 151 154 163 170 188 204 189 193 167 195 132 189 177 152 146 159 169 167 188 160 187 214 116 175 156 180 183 176 182 178 172 178 185 166 180 156 172 189 226 162 177 152 177 181 139 166 148 185 172 128 203 191 87 99 100 38 41 85 49 241 114 294 292 298 285 251 261 274 260 234 249 264 263 270 286 261 260 263 263
187 168 191 181 187 164 161 151 153 155 164 176 189 192 191 209 214 176 156 183 189 157 154 155 185 168 172 179 179 183 190 66 204 164 183 170 189 183 176 192 181 181 193 153 109 299 167 140 194 159 145 198 134 155 166 183 111 112 201 200 93 98 96 128 198 1 83 215 253 159 227 273 53 271 8 242 226 250 271 249 266 270 270 269 253 251 246 247
179 183 185 185 179 157 156 156 154 164 170 177 201 197 187 197 228 183 132 156 164 197 157 170 171 177 173 166 186 187 181 182 209 196 172 176 220 169 171 176 191 193 183 177 164 214 120 78 171 246 161 119 18 118 131 208 15 170 194 150 153 209 231 189 109 207 181 228 257 289 330 260 203 239 296 240 210 261 267 286 318 284 251 241 259 267 273 274
173 168 200 188 156 158 154 156 163 168 180 182 191 202 190 204 98 200 208 174 136 174 174 199 141 212 164 183 177 179 172 199 176 219 161 191 182 182 179 164 182 194 186 163 179 175 194 126 152 2 139 168 98 175 189 189 262 29 85 165 194 109 218 156 201 4 123 253 53 286 54 242 192 239 173 256 240 235 278 305 296 268 266 253 248 258 268 281
165 165 219 154 157 156 153 159 169 172 186 191 185 199 150 196 205 256 333 159 173 163 237 173 253 168 189 191 180 179 181 189 175 205 209 174 183 160 182 183 176 185 185 197 173 167 173 100 143 348 32 130 175 197 198 184 177 138 155 180 211 204 293 108 143 160 184 200 201 204 287 251 243 193 180 218 253 255 236 256 255 255 260 253 247 244 250 259
166 179 179 170 154 151 154 163 184 184 180 194 192 170 169 190 142 138 79 18 111 358 159 182 171 184 171 174 192 164 182 186 179 193 203 178 184 158 193 175 169 176 181 195 165 177 110 188 162 143 143 183 205 198 206 193 181 179 177 191 185 171 158 175 225 64 117 173 227 160 247 14 279 188 216 216 234 257 249 225 252 252 257 260 258 241 237 266
164 183 190 177 153 153 158 173 185 173 182 187 186 143 176 136 119 149 106 334 82 137 12 88 0 133 166 186 161 170 154 182 189 187 215 184 202 191 184 182 172 165 171 183 188 197 158 113 118 169 193 191 184 22 158 175 188 172 169 189 181 143 115 201 222 212 78 248 96 184 319 255 222 190 206 225 235 244 261 226 247 251 249 256 269 281 270 244
184 198 16 167 158 158 170 184 160 173 178 168 101 63 69 103 112 182 119 182 113 153 97 90 208 116 273 138 174 166 166 175 178 198 197 205 205 208 176 183 167 168 177 188 170 206 93 126 122 58 47 351 59 57 49 51 116 119 258 138 165 195 197 208 209 144 186 157 229 252 265 269 41 161 242 246 264 274 269 233 251 266 266 271 271 281 276 276
144 141 139 207 163 165 179 181 165 173 143 146 134 122 22 131 133 146 108 165 125 162 131 165 16 289 159 214 156 175 167 170 203 191 208 203 229 194 169 186 167 175 180 182 171 187 173 210 158 140 131 115 50 0 13 348 171 217 191 193 198 196 194 188 82 66 213 212 175 209 251 251 242 357 320 292 292 270 266 256 215 250 267 262 268 273 271 267
113 30 62 172 168 170 186 176 172 166 156 155 145 148 132 54 356 84 132 162 89 147 123 218 195 165 59 124 79 68 177 181 152 212 200 203 259 147 144 187 179 179 198 177 182 175 172 159 161 160 158 164 176 193 198 200 203 199 204 186 192 190 175 143 208 172 220 207 172 197 241 250 31 26 130 297 333 296 277 257 252 224 253 277 282 274 275 274
172 149 198 57 188 170 160 93 301 164 156 156 155 160 142 127 60 17 79 69 124 88 66 128 55 90 114 115 69 91 139 353 139 180 194 183 172 241 166 180 184 192 189 158 149 153 153 187 191 184 180 187 194 198 200 186 164 182 193 197 196 195 188 196 195 205 217 209 198 221 225 67 118 163 289 292 320 271 295 309 302 299 281 263 256 264 263 262
132 165 169 138 63 69 124 139 150 175 168 159 160 150 156 139 130 63 355 111 278 131 105 43 220 148 228 136 146 98 342 150 329 153 191 187 210 277 179 170 185 196 170 153 171 148 93 189 202 207 218 209 54 53 72 138 174 193 185 196 195 194 193 198 203 219 217 212 234 238 223 223 228 289 272 273 272 271 264 262 288 290 262 251 268 278 284 285
165 264 19 175 121 159 131 171 160 163 141 155 128 151 155 141 143 137 39 16 126 184 111 331 22 296 175 159 144 135 166 102 78 183 176 192 116 121 153 179 183 181 159 190 179 184 179 206 199 206 218 212 28 107 135 168 195 193 194 189 190 189 186 198 222 236 225 208 233 243 132 220 239 244 239 234 226 228 226 244 233 260 294 297 299 294 292 288
242 113 124 275 105 160 153 144 150 144 142 140 98 152 151 153 142 124 154 144 109 207 89 148 202 202 159 150 138 132 169 159 213 277 179 145 165 130 145 178 206 166 175 185 192 179 174 231 204 208 223 208 344 134 149 171 197 203 208 203 192 184 194 202 216 220 213 212 227 223 157 219 205 202 216 241 204 204 221 263 304 307 276 286 302 290 285 295
178 161 153 9 77 118 126 133 139 138 137 150 129 190 153 150 139 135 66 146 154 194 172 118 180 170 174 171 153 163 187 197 176 168 216 148 153 171 170 177 138 218 193 184 179 200 191 212 185 176 207 209 220 186 169 174 187 206 205 194 191 198 210 213 220 226 222 246 255 242 259 249 218 194 198 217 185 198 256 238 245 257 279 289 292 287 282 277
156 340 140 125 106 120 120 135 145 148 133 153 138 174 133 147 140 134 109 31 221 176 163 167 148 150 178 168 176 168 170 135 114 129 138 151 147 55 122 226 232 179 197 195 186 189 198 226 140 145 198 214 196 179 189 180 190 198 193 178 181 188 208 217 221 218 200 220 230 230 234 242 223 173 191 220 241 230 219 211 234 242 244 253 267 272 273 269
86 25 66 104 101 135 125 127 127 130 156 191 137 159 147 159 142 132 97 56 30 302 170 136 154 132 147 173 204 198 180 165 168 157 106 162 113 110 119 183 24 214 190 190 202 192 189 163 169 164 205 212 198 178 183 157 155 208 203 187 192 201 207 213 219 216 208 211 221 221 231 233 190 139 179 220 223 241 250 216 214 224 232 236 238 248 263 272